Location: Auckland
(36.8670°S, 174.7670°E)
Time: 21:16:54
(UTC+12:00)

A-11 Canister half - Pass Details

Date: 27 July 2019
Orbit: 1526 x 1683 km, 47.3° (Epoch: 21 August)

Event Time Altitude Azimuth Distance (km) Brightness Sun altitude
Rises 13:32:03 0° 238° (WSW) 4,786 11.5 31.8°
Reaches altitude 10° 13:35:06 10° 238° (WSW) 3,819 11.0 31.6°
Maximum altitude 13:44:54 82° 324° (NW) 1,653 9.9 30.9°
Drops below altitude 10° 13:54:57 10° 49° (NE) 3,915 11.4 30.2°
Sets 13:58:07 0° 50° (NE) 4,911 11.8 29.9°
